When you browse on this site, cookies collect data to enhance your experience and personalize the content and advertising you see.
Visit our Privacy Policy to learn more. By continuing to use the site, you agree to this use of cookies and data.
  • In Portugal
  • List of Countries
  • For 7 days
  • Water Temperature
  • Weather Map
  • Weather Widgets
  • user-avatar
    Login

    Hourly Weather Dzhilihur

    Today, 23 September, Monday

    Time Temperature Precipitation Wind Pressure Humidity
    00:00 +4°C° 0 mm 2 mps 624 mmHg 58%
    01:00 +4°C° 0 mm 2 mps 624 mmHg 58%
    02:00 +4°C° 0 mm 2 mps 624 mmHg 59%
    03:00 +4°C° 0 mm 2 mps 624 mmHg 59%
    04:00 +5°C° 0 mm 2 mps 624 mmHg 57%
    05:00 +6°C° 0 mm 1 mps 624 mmHg 56%
    06:00 +6°C° 0 mm 1 mps 624 mmHg 55%
    07:00 +8°C° 0 mm 1 mps 625 mmHg 53%
    08:00 +9°C° 0 mm 2 mps 626 mmHg 52%
    09:00 +13°C° 0 mm 2 mps 627 mmHg 48%
    10:00 +14°C° 0 mm 2 mps 627 mmHg 47%
    11:00 +14°C° 0 mm 2 mps 627 mmHg 47%
    12:00 +14°C° 0 mm 3 mps 627 mmHg 46%
    13:00 +14°C° 0 mm 3 mps 627 mmHg 46%
    14:00 +15°C° 0 mm 2 mps 626 mmHg 46%
    15:00 +15°C° 0 mm 2 mps 626 mmHg 46%
    16:00 +13°C° 0 mm 2 mps 625 mmHg 56%
    17:00 +10°C° 0 mm 1 mps 624 mmHg 65%
    18:00 +8°C° 0 mm 1 mps 623 mmHg 74%
    19:00 +8°C° 0 mm 1 mps 624 mmHg 69%
    20:00 +7°C° 0 mm 1 mps 624 mmHg 64%
    21:00 +7°C° 0 mm 1 mps 624 mmHg 59%
    22:00 +7°C° 0 mm 1 mps 624 mmHg 58%
    23:00 +7°C° 0 mm 1 mps 624 mmHg 57%

    Tomorrow, 24 September, Tuesday

    Time Temperature Precipitation Wind Pressure Humidity
    00:00 +7°C° 0 mm 1 mps 624 mmHg 56%
    01:00 +7°C° 0 mm 1 mps 624 mmHg 56%
    02:00 +7°C° 0 mm 1 mps 624 mmHg 57%
    03:00 +7°C° 0 mm 1 mps 624 mmHg 58%
    04:00 +7°C° 0 mm 1 mps 624 mmHg 59%
    05:00 +7°C° 0 mm 1 mps 624 mmHg 60%
    06:00 +7°C° 0 mm 1 mps 624 mmHg 61%
    07:00 +9°C° 0 mm 2 mps 625 mmHg 57%
    08:00 +12°C° 0 mm 2 mps 626 mmHg 53%
    09:00 +14°C° 0 mm 2 mps 627 mmHg 49%
    10:00 +15°C° 0 mm 2 mps 627 mmHg 48%
    11:00 +16°C° 0 mm 3 mps 627 mmHg 46%
    12:00 +17°C° 0 mm 3 mps 627 mmHg 45%
    13:00 +17°C° 0 mm 3 mps 627 mmHg 46%
    14:00 +16°C° 0 mm 3 mps 626 mmHg 48%
    15:00 +16°C° 0 mm 3 mps 626 mmHg 49%
    16:00 +14°C° 0 mm 2 mps 625 mmHg 59%
    17:00 +12°C° 0 mm 2 mps 624 mmHg 69%
    18:00 +9°C° 0 mm 1 mps 623 mmHg 79%
    19:00 +9°C° 0 mm 1 mps 623 mmHg 75%
    20:00 +9°C° 0 mm 1 mps 623 mmHg 71%
    21:00 +9°C° 0 mm 1 mps 624 mmHg 66%
    22:00 +8°C° 0 mm 2 mps 623 mmHg 67%
    23:00 +8°C° 0 mm 2 mps 623 mmHg 69%

    Day after tomorrow, 25 September, Wednesday

    Time Temperature Precipitation Wind Pressure Humidity
    00:00 +8°C° 0 mm 2 mps 623 mmHg 70%
    01:00 +8°C° 0 mm 2 mps 622 mmHg 69%
    02:00 +8°C° 0 mm 2 mps 622 mmHg 69%
    03:00 +8°C° 0 mm 2 mps 622 mmHg 68%
    04:00 +8°C° 0 mm 2 mps 622 mmHg 66%
    05:00 +8°C° 0 mm 2 mps 622 mmHg 65%
    06:00 +8°C° 0 mm 2 mps 622 mmHg 63%
    07:00 +12°C° 0 mm 2 mps 624 mmHg 57%
    08:00 +14°C° 0 mm 2 mps 625 mmHg 50%
    09:00 +17°C° 0 mm 2 mps 626 mmHg 44%
    10:00 +17°C° 0 mm 3 mps 626 mmHg 44%
    11:00 +18°C° 0 mm 3 mps 626 mmHg 43%
    12:00 +19°C° 0 mm 3 mps 626 mmHg 43%
    13:00 +19°C° 0 mm 3 mps 626 mmHg 44%
    14:00 +19°C° 0 mm 3 mps 626 mmHg 45%
    15:00 +19°C° 0 mm 3 mps 626 mmHg 46%
    16:00 +16°C° 0 mm 3 mps 625 mmHg 53%
    17:00 +14°C° 0 mm 2 mps 624 mmHg 61%
    18:00 +12°C° 0 mm 2 mps 624 mmHg 69%
    19:00 +12°C° 0 mm 1 mps 624 mmHg 67%
    20:00 +11°C° 0 mm 1 mps 624 mmHg 65%
    21:00 +11°C° 0 mm 1 mps 624 mmHg 64%
    22:00 +11°C° 0 mm 1 mps 624 mmHg 64%
    23:00 +11°C° 0 mm 1 mps 624 mmHg 64%

    26 September, Thursday

    Time Temperature Precipitation Wind Pressure Humidity
    00:00 +11°C° 0 mm 1 mps 624 mmHg 65%
    01:00 +10°C° 0 mm 1 mps 624 mmHg 65%
    02:00 +10°C° 0 mm 1 mps 624 mmHg 66%
    03:00 +10°C° 0 mm 1 mps 624 mmHg 66%
    04:00 +10°C° 0 mm 1 mps 624 mmHg 66%
    05:00 +10°C° 0 mm 1 mps 624 mmHg 67%
    06:00 +10°C° 0 mm 1 mps 624 mmHg 67%
    07:00 +12°C° 0 mm 2 mps 625 mmHg 62%
    08:00 +15°C° 0 mm 2 mps 625 mmHg 58%
    09:00 +17°C° 0 mm 3 mps 626 mmHg 53%
    10:00 +18°C° 0 mm 3 mps 627 mmHg 50%
    11:00 +19°C° 0 mm 4 mps 627 mmHg 47%
    12:00 +20°C° 0 mm 4 mps 627 mmHg 44%
    13:00 +19°C° 0 mm 4 mps 627 mmHg 44%
    14:00 +19°C° 0 mm 4 mps 626 mmHg 44%
    15:00 +19°C° 0 mm 3 mps 626 mmHg 44%
    16:00 +17°C° 0 mm 3 mps 625 mmHg 52%
    17:00 +15°C° 0 mm 2 mps 625 mmHg 60%
    18:00 +13°C° 0 mm 1 mps 624 mmHg 68%
    19:00 +13°C° 0 mm 1 mps 624 mmHg 70%
    20:00 +12°C° 0 mm 2 mps 624 mmHg 72%
    21:00 +12°C° 0 mm 2 mps 624 mmHg 73%
    22:00 +12°C° 0 mm 2 mps 624 mmHg 76%
    23:00 +10°C° 0 mm 2 mps 624 mmHg 80%

    27 September, Friday

    Time Temperature Precipitation Wind Pressure Humidity
    00:00 +10°C° 0 mm 2 mps 624 mmHg 83%
    01:00 +10°C° 0 mm 2 mps 623 mmHg 82%
    02:00 +10°C° 0 mm 2 mps 623 mmHg 82%
    03:00 +10°C° 0 mm 2 mps 623 mmHg 82%
    04:00 +10°C° 0 mm 2 mps 623 mmHg 81%
    05:00 +10°C° 0 mm 2 mps 623 mmHg 81%
    06:00 +10°C° 0 mm 2 mps 623 mmHg 80%
    07:00 +13°C° 0 mm 2 mps 624 mmHg 75%
    08:00 +15°C° 0 mm 2 mps 625 mmHg 69%
    09:00 +18°C° 0 mm 2 mps 626 mmHg 63%
    10:00 +18°C° 0 mm 3 mps 626 mmHg 59%
    11:00 +19°C° 0 mm 3 mps 626 mmHg 56%
    12:00 +20°C° 0 mm 3 mps 626 mmHg 52%
    13:00 +20°C° 0 mm 3 mps 626 mmHg 51%
    14:00 +20°C° 0 mm 3 mps 626 mmHg 51%
    15:00 +20°C° 0 mm 3 mps 625 mmHg 50%
    16:00 +18°C° 0 mm 3 mps 625 mmHg 57%
    17:00 +16°C° 0 mm 2 mps 624 mmHg 64%
    18:00 +14°C° 0 mm 1 mps 623 mmHg 71%
    19:00 +14°C° 0 mm 1 mps 623 mmHg 72%
    20:00 +14°C° 0 mm 1 mps 623 mmHg 73%
    21:00 +13°C° 0 mm 1 mps 624 mmHg 73%
    22:00 +13°C° 0 mm 1 mps 623 mmHg 76%
    23:00 +13°C° 0 mm 1 mps 623 mmHg 79%

    28 September, Saturday

    Time Temperature Precipitation Wind Pressure Humidity
    00:00 +13°C° 0 mm 1 mps 623 mmHg 82%
    01:00 +13°C° 0 mm 1 mps 623 mmHg 83%
    02:00 +12°C° 0 mm 1 mps 623 mmHg 84%
    03:00 +12°C° 0 mm 1 mps 622 mmHg 86%
    04:00 +11°C° 0 mm 1 mps 622 mmHg 85%
    05:00 +10°C° 0 mm 2 mps 622 mmHg 85%
    06:00 +10°C° 0 mm 2 mps 621 mmHg 84%
    07:00 +14°C° 0 mm 2 mps 622 mmHg 76%
    08:00 +16°C° 0 mm 3 mps 623 mmHg 67%
    09:00 +18°C° 0 mm 3 mps 624 mmHg 59%
    10:00 +17°C° 0.5 mm 3 mps 623 mmHg 66%
    11:00 +16°C° 0.5 mm 3 mps 623 mmHg 74%
    12:00 +14°C° 0.5 mm 3 mps 623 mmHg 82%
    13:00 +13°C° 1 mm 3 mps 623 mmHg 80%
    14:00 +13°C° 1 mm 3 mps 623 mmHg 78%
    15:00 +13°C° 1 mm 3 mps 623 mmHg 77%
    16:00 +12°C° 0 mm 2 mps 623 mmHg 80%
    17:00 +10°C° 0 mm 2 mps 623 mmHg 83%
    18:00 +10°C° 0 mm 1 mps 623 mmHg 87%
    19:00 +10°C° 0 mm 1 mps 623 mmHg 88%
    20:00 +9°C° 0 mm 2 mps 623 mmHg 89%
    21:00 +8°C° 0 mm 2 mps 624 mmHg 90%
    22:00 +9°C° 0 mm 1 mps 624 mmHg 89%
    23:00 +8°C° 0 mm 1 mps 624 mmHg 88%
    Show more